Bogorodskoye Airport


Codes: UHNB/BQG
Name: Bogorodskoye Airport
City: Bogorodskoye
Country: Russia
Elevation: 0 ft.

Photos at Bogorodskoye Airport


   Photos courtesy of SpottingLog. You can add your own sightings and photos by signing up for a free trial today.



No photos found.

Weather at Bogorodskoye Airport


Time (UTC)DescriptionTempratureWindCloud coverageVisibilityPressureHumidity
16-Jun-2024 00:00Overcast Clouds10°C4 mph, E100%10000m1007hPa91%
16-Jun-2024 03:00Overcast Clouds11°C4 mph, E100%10000m1007hPa84%
16-Jun-2024 06:00Overcast Clouds12°C7 mph, E100%10000m1005hPa73%
16-Jun-2024 09:00Overcast Clouds10°C7 mph, NE97%10000m1005hPa82%
16-Jun-2024 12:00Overcast Clouds8°C4 mph, NE98%10000m1005hPa92%
16-Jun-2024 15:00Overcast Clouds7°C4 mph, NE100%5266m1003hPa94%
16-Jun-2024 18:00Light Rain6°C4 mph, NE100%2953m1001hPa98%
16-Jun-2024 21:00Moderate Rain6°C4 mph, N100%10000m1000hPa97%
17-Jun-2024 00:00Light Rain6°C4 mph, N100%10000m999hPa97%
17-Jun-2024 03:00Light Rain6°C4 mph, N100%10000m999hPa96%
17-Jun-2024 06:00Light Rain6°C4 mph, NW100%10000m999hPa97%
17-Jun-2024 09:00Light Rain6°C4 mph, NW100%10000m999hPa97%
17-Jun-2024 12:00Overcast Clouds5°C2 mph, NW100%10000m1001hPa98%
17-Jun-2024 15:00Overcast Clouds5°C2 mph, NW100%6176m1001hPa99%
17-Jun-2024 18:00Overcast Clouds4°C2 mph, NW100%2784m1001hPa99%
17-Jun-2024 21:00Overcast Clouds4°C2 mph, NW100%1845m1002hPa98%
18-Jun-2024 00:00Light Rain5°C2 mph, NW100%7426m1003hPa97%
18-Jun-2024 03:00Overcast Clouds7°C4 mph, NW100%10000m1003hPa92%
18-Jun-2024 06:00Overcast Clouds7°C4 mph, NW100%10000m1003hPa87%
18-Jun-2024 09:00Light Rain6°C4 mph, NW100%10000m1003hPa96%
18-Jun-2024 12:00Light Rain5°C4 mph, NW100%1137m1003hPa99%
18-Jun-2024 15:00Moderate Rain5°C4 mph, NW100%984m1003hPa99%
18-Jun-2024 18:00Light Rain4°C4 mph, NW100%945m1003hPa99%
18-Jun-2024 21:00Light Rain5°C2 mph, NW100%2491m1004hPa99%
19-Jun-2024 00:00Light Rain5°C4 mph, NW100%6426m1005hPa98%
19-Jun-2024 03:00Light Rain5°C4 mph, NW100%6173m1006hPa98%
19-Jun-2024 06:00Light Rain5°C4 mph, NW100%6615m1006hPa98%
19-Jun-2024 09:00Overcast Clouds5°C4 mph, NW100%1722m1008hPa99%
19-Jun-2024 12:00Light Rain5°C4 mph, NW100%1419m1009hPa99%
19-Jun-2024 15:00Light Rain4°C4 mph, NW100%1311m1010hPa99%
19-Jun-2024 18:00Light Rain4°C2 mph, NW100%755m1010hPa99%
19-Jun-2024 21:00Light Rain4°C2 mph, NW100%912m1011hPa99%
20-Jun-2024 00:00Light Rain5°C4 mph, NW100%6040m1012hPa98%
20-Jun-2024 03:00Light Rain5°C2 mph, NW100%7326m1013hPa98%
20-Jun-2024 06:00Light Rain5°C2 mph, NW100%7604m1014hPa98%
20-Jun-2024 09:00Overcast Clouds5°C2 mph, NW100%10000m1015hPa98%
20-Jun-2024 12:00Overcast Clouds5°C2 mph, N100%7488m1016hPa99%
20-Jun-2024 15:00Overcast Clouds5°C2 mph, N100%7268m1016hPa99%
20-Jun-2024 18:00Overcast Clouds5°C2 mph, N100%7575m1017hPa99%
20-Jun-2024 21:00Overcast Clouds6°C2 mph, N100%10000m1017hPa97%